Погода в Невьянске

Россия / Свердловская область     57°29′28″N   60°13′05″E
темп.,
°C
ветер,
м/с
пор.,
м/с
влажн.,
%
обл.,
%
осадки,
мм/ч
давл.,
гПа
погр.,
м
4 июля, пн
пн423:00+12ссв3998100 1.5 1009481
02:00+10св4995100 0.0 1010479
05:00+9св4119467 0.0 1010529
08:00+11св588499 0.1 1011824
11:00+8ссв4994100 0.6 1012685
14:00+12ссв5761100 0.1 10121202
17:00+12ссв4761100 0.2 10121400
20:00+10св4971100 0.1 10121176
5 июля, вт
вт523:00+9с3877100 0.1 1012440
02:00+7с3108351 0.0 1013344
05:00+5ссз31091100 0.0 1013244
08:00+10с4865100 0.0 1013540
11:00+14с5748100 0.0 10131425
14:00+17ссв4640100 0.0 10121769
17:00+18ссв4641100 0.0 10111934
20:00+15с1164100 0.0 101117
6 июля, ср
ср623:00+12в1183100 0.3 101211
02:00+11ююз1187100 0.0 101311
05:00+11зюз1185100 0.0 101227
08:00+12ююз2283100 0.0 101259
11:00+12юз1283100 0.1 101377
14:00+15юз1167100 0.1 1013359
17:00+18юз1163100 0.1 1013538
20:00+16ююв127673 0.0 1014134
7 июля, чт
чт723:00+11ю11940 0.0 101511
02:00+10ююз11965 0.0 101511
05:00+9юз11960 0.0 101610
08:00+15ю12760 0.0 1017308
11:00+21ю11530 0.0 10171119
14:00+24ююв11420 0.0 10161743
17:00+24вюв12410 0.0 10161882
20:00+21юв23650 0.0 101652
8 июля, пт
пт823:00+15ю23792 0.0 101742
02:00+13зюз11930 0.0 101711
05:00+14зюз119412 0.0 101716
08:00+19зюз2672100 0.0 1017326
11:00+19зюз357089 0.0 1017378
14:00+27зюз144493 0.0 10152329
17:00+23ю226995 0.0 101555
20:00+21з2276100 0.0 101550